Meteor 1-28 Rocket - Orbit

View from above orbital plane
View from above orbital plane
View from above satellite
View from above satellite

Ground track
Ground track

The orbit data is extracted from the following two-line orbital elements,

1 10114U 77057B   13138.53073319  .00002799  00000-0  16797-3 0  9721
2 10114 097.3273 011.1170 0017664 108.0957 252.2199 15.11593069957916
Epoch (UTC): 18 May 2013 12:44:15
Eccentricity: 0.0017664
inclination: 97.3273°
perigee height: 519 km
apogee height: 543 km
right ascension of ascending node: 11.1170°
argument of perigee: 108.0957°
revolutions per day: 15.11593069
mean anomaly at epoch: 252.2199°
orbit number at epoch: 95791

The dashed part of the orbit path shows where the satellite is in the earth's shadow,  

Developed and maintained by Chris Peat, Heavens-Above GmbH. Please read the updated FAQ before sending e-mail. Imprint. DLR